Change the Weather History Date:

Tuesday, August 27, 2013

  Actual Average Record
Temperature  
Mean Temperature 71 °F -  
Max Temperature 89 °F 83 °F 99 °F (1999)
Min Temperature 53 °F 51 °F 48 °F (1998)
Cooling Degree Days 6    
Growing Degree Days 21 (Base 50)    
Moisture  
Dew Point 54 °F    
Average Humidity 67    
Maximum Humidity 93    
Minimum Humidity 31    
Precipitation  
Precipitation 0.00 in - - ()
Sea Level Pressure  
Sea Level Pressure 29.86 in    
Wind  
Wind Speed 0 mph (North)    
Max Wind Speed 5 mph    
Max Gust Speed -    
Averages and records for this station are not official NWS values.
T = Trace of Precipitation, MM = Missing Value Source: NWS Daily Summary

Daily Weather History Graph

Daily Weather History Graph

Search for Another Location

Airport or City:

Trip Planner

Search our weather history database for the weather conditions in past years. The results will help you decide how hot, cold, wet, or windy it might be!

Date:

Astronomy

Aug. 27, 2013 Rise Set
Actual Time 6:57 AM MDT 8:29 PM MDT
Civil Twilight 6:25 AM MDT 9:00 PM MDT
Nautical Twilight 5:47 AM MDT 9:38 PM MDT
Astronomical Twilight 5:06 AM MDT 10:19 PM MDT
Moon No Moon Rise 2:24 PM MDT (8/27)
Length of Visible Light 14h 35m
Length of Day
13h 32m
Waning Gibbous, 56% of the Moon is Illuminated
Aug 27
Waning Gibbous
Aug 28
Last Quarter
Sep 5
New
Sep 12
First Quarter
Sep 19
Full

Hourly Weather History & Observations

Time (MDT) Temp. Heat Index Dew Point Humidity Pressure Visibility Wind Dir Wind Speed Gust Speed Precip Events Conditions
12:52 AM 60.1 °F - 55.0 °F 83% 29.90 in - Calm Calm - N/A   Unknown
1:52 AM 59.0 °F - 55.0 °F 87% 29.92 in - Calm Calm - N/A   Unknown
2:52 AM 57.0 °F - 54.0 °F 89% 29.93 in - Calm Calm - N/A   Unknown
3:52 AM 55.9 °F - 53.1 °F 90% 29.94 in - Calm Calm - N/A   Unknown
4:52 AM 55.0 °F - 52.0 °F 89% 29.95 in - Calm Calm - N/A   Unknown
5:52 AM 55.0 °F - 52.0 °F 89% 29.97 in - Calm Calm - N/A   Unknown
6:52 AM 53.1 °F - 51.1 °F 93% 29.99 in - Calm Calm - N/A   Unknown
7:52 AM 53.1 °F - 51.1 °F 93% 30.00 in - Calm Calm - N/A   Unknown
8:52 AM 55.9 °F - 52.0 °F 87% 30.00 in - Calm Calm - N/A   Unknown
9:52 AM 60.1 °F - 52.0 °F 75% 29.99 in - Calm Calm - N/A   Unknown
10:52 AM 64.9 °F - 51.1 °F 61% 29.96 in - Calm Calm - N/A   Unknown
11:52 AM 72.0 °F - 51.1 °F 48% 29.92 in - Calm Calm - N/A   Unknown
12:52 PM 78.1 °F - 52.0 °F 40% 29.88 in - Calm Calm - N/A   Unknown
1:52 PM 82.0 °F - 51.1 °F 34% 29.83 in - Calm Calm - N/A   Unknown
2:52 PM 84.9 °F - 51.1 °F 31% 29.80 in - Calm Calm - N/A   Unknown
3:52 PM 87.1 °F 85.1 °F 54.0 °F 32% 29.75 in - Calm Calm - N/A   Unknown
4:52 PM 89.1 °F 87.7 °F 57.0 °F 34% 29.73 in - Calm Calm - N/A   Unknown
5:52 PM 82.0 °F 81.7 °F 57.0 °F 42% 29.71 in - Calm Calm - N/A   Unknown
6:52 PM 77.0 °F - 57.9 °F 52% 29.71 in - Calm Calm - N/A   Unknown
7:52 PM 73.0 °F - 60.1 °F 64% 29.73 in - North 3.5 mph - N/A   Unknown
8:52 PM 71.1 °F - 57.9 °F 63% 29.73 in - North 3.5 mph - N/A   Unknown
9:52 PM 68.0 °F - 57.9 °F 70% 29.75 in - Calm Calm - N/A   Unknown
10:52 PM 68.0 °F - 59.0 °F 73% 29.75 in - North 4.6 mph - N/A   Unknown
11:52 PM 64.9 °F - 57.9 °F 78% 29.75 in - North 3.5 mph - N/A   Unknown